Temperature
7 8 8 8 8 8 8 8 9 9 9 9 9 9 10 10 9 9 9 8 7 7 7 7 7 7 8 8 8 9 9 9 9 10 10 10 10 11 11 11 12 12 12 12
8 8 8 8 8 8 8 8 9 9 9 9 9 9 10 9 9 8 8 7 7 6 6 6 7 7 7 7 8 8 8 9 9 9 9 10 10 10 11 11 11 11 11 12
8 8 8 8 8 8 8 8 9 8 9 9 8 10 10 9 9 8 7 7 6 6 6 6 6 6 6 7 7 7 8 8 8 9 9 9 9 10 10 10 11 11 11 11
8 8 7 8 8 8 8 9 8 8 8 8 8 9 10 9 9 8 7 7 6 5 5 5 5 5 6 6 6 7 7 7 8 8 9 9 9 9 9 10 10 10 10 10
8 7 8 8 8 8 8 8 8 8 7 7 8 8 10 9 8 8 7 6 5 5 5 5 5 5 5 6 6 7 7 7 7 8 8 8 8 8 9 9 9 10 10 10
7 7 7 8 8 8 8 8 8 7 8 8 8 9 10 9 8 7 7 6 5 4 4 4 4 5 5 5 6 6 6 7 7 7 7 8 8 8 8 9 9 9 9 10
7 7 7 7 8 8 8 8 9 9 9 10 8 8 9 9 8 7 6 5 4 4 4 4 4 4 4 5 5 5 6 6 6 7 7 7 7 7 8 8 9 9 9 9
7 8 7 7 8 7 7 8 8 9 10 10 8 9 10 8 7 6 5 5 4 4 4 4 4 4 4 4 4 5 5 6 6 6 6 7 7 7 7 8 8 8 8 9
7 7 7 7 7 7 7 8 7 8 7 8 10 9 9 8 7 6 6 5 4 4 3 3 3 3 3 4 4 4 5 5 5 6 6 6 6 6 7 7 8 8 8 8
6 6 7 7 7 7 7 7 7 8 8 10 10 10 10 8 7 6 6 5 4 3 3 3 3 3 3 3 4 4 4 5 5 5 5 5 6 6 7 7 7 7 7 7
6 6 7 7 7 7 7 7 7 8 8 9 10 11 9 8 7 6 5 4 4 3 3 3 3 3 3 3 3 4 4 5 5 5 5 5 6 6 6 6 6 6 7 7
6 7 7 7 7 7 7 7 7 8 8 8 9 10 8 7 7 6 5 4 3 3 2 3 3 3 3 3 3 3 3 4 4 4 4 5 5 5 5 6 6 6 6 6
6 7 7 8 7 7 7 7 7 7 7 7 9 10 8 7 6 5 5 4 3 3 2 3 3 3 3 3 3 3 3 3 4 4 4 4 4 5 5 5 5 5 5 5
6 7 7 9 9 8 7 7 6 6 7 8 8 9 8 7 6 6 5 4 3 3 2 2 2 2 2 3 3 3 3 3 3 3 3 3 4 4 4 4 4 5 5 5
7 7 6 6 7 7 7 7 6 6 7 8 8 8 8 7 6 5 4 3 3 2 2 2 2 2 2 2 2 2 3 3 3 3 3 3 3 3 4 4 4 4 5 5
6 6 6 6 6 6 6 7 7 6 7 7 7 7 8 7 6 5 4 4 3 3 2 2 2 2 2 2 2 2 2 3 3 3 3 3 3 3 3 3 4 4 4 4
6 6 7 8 7 7 8 8 7 7 7 7 7 8 7 6 6 5 4 3 3 2 2 2 2 2 2 2 2 2 2 2 2 2 2 3 3 3 3 3 3 3 3 3
5 6 6 7 8 8 9 7 7 7 7 7 7 7 7 6 5 5 4 3 3 3 2 2 2 2 2 2 2 2 2 2 2 2 2 2 2 2 2 2 3 3 3 3
4 5 6 6 8 9 9 7 6 6 7 7 7 7 6 4 4 5 4 4 3 3 3 2 2 2 2 2 2 2 2 2 2 2 2 2 2 2 2 2 2 2 2 2
3 4 6 6 7 8 9 7 5 7 8 7 6 6 5 4 7 7 4 4 3 3 3 2 2 2 2 2 2 1 2 1 1 1 1 1 1 1 1 1 1 1 1 1
4 5 5 6 6 8 8 5 6 8 9 6 5 5 4 5 6 5 4 4 3 3 2 2 2 2 2 1 1 1 1 1 1 1 1 1 1 1 1 1 1 1 1 1
6 6 5 6 6 8 6 5 7 8 6 5 5 4 4 4 4 4 4 4 3 3 2 2 2 1 1 1 1 1 1 1 1 1 1 1 1 1 0 0 0 0 0 0
5 6 7 7 8 7 5 5 5 5 4 4 4 4 4 4 4 4 3 3 3 2 2 2 1 1 1 1 1 1 1 0 0 0 0 0 0 0 -0 -0 -0 -0 -1 -1
4 3 4 5 6 5 4 4 5 5 4 4 4 4 4 4 4 4 3 3 3 2 2 2 1 1 1 1 1 0 0 0 -0 -0 -0 -0 -0 -0 -0 -1 -1 -1 -1 -1
5 3 3 4 6 5 5 5 5 5 4 4 4 4 4 4 4 4 3 3 3 2 2 2 1 1 1 1 0 0 -0 -0 -0 -0 -1 -1 -1 -1 -1 -1 -1 -1 -2 -2
3 4 5 7 6 5 6 5 5 5 5 4 4 4 4 4 4 3 3 3 2 2 2 2 1 1 1 0 0 -0 -0 -0 -1 -1 -1 -1 -1 -1 -1 -1 -1 -1 -2 -2
Wind_Speed
2 3 3 3 3 2 3 4 7 7 6 7 9 12 12 10 9 8 8 8 8 10 11 10 10 9 8 7 6 6 6 7 5 6 6 6 7 7 7 7 8 9 9 11
4 3 2 2 4 4 5 6 7 6 4 6 9 11 9 6 6 7 8 9 10 11 11 11 11 9 8 7 5 5 6 6 6 6 6 6 6 6 7 6 7 8 9 10
3 2 3 4 4 5 6 6 6 7 9 4 6 5 1 2 4 7 9 9 10 11 12 12 11 10 9 7 5 4 5 6 6 6 6 5 5 6 6 7 6 8 9 10
2 1 3 4 4 4 4 4 6 7 6 3 4 3 2 4 6 9 11 11 11 11 11 11 11 11 9 7 6 5 5 5 5 5 6 8 7 8 8 6 6 7 8 9
2 2 3 3 3 4 3 4 6 6 4 4 3 4 3 3 6 10 11 12 12 12 12 11 11 10 8 7 6 4 4 4 4 4 5 7 8 7 6 6 7 6 6 7
1 1 2 2 2 3 4 4 3 2 2 3 2 3 3 2 5 9 10 12 12 12 12 11 10 9 8 7 5 4 3 3 3 3 4 5 7 7 7 7 6 5 5 6
0 2 2 2 2 2 2 2 1 1 2 1 0 3 3 3 5 7 9 10 11 12 12 11 10 9 8 7 6 4 2 1 1 2 2 2 4 6 6 6 6 5 4 4
1 1 1 1 2 1 1 2 2 2 2 2 2 3 2 2 4 5 6 7 9 11 11 11 9 8 8 8 7 5 3 2 2 1 1 1 2 3 3 4 3 3 3 4
0 1 1 1 1 1 1 1 1 1 2 3 2 2 2 2 4 5 6 8 10 10 11 11 10 9 8 7 7 5 4 3 3 2 2 1 1 2 2 2 2 3 3 3
1 1 1 1 2 1 1 1 2 2 2 2 3 2 2 4 4 5 6 8 9 10 10 11 10 9 9 8 7 7 6 4 4 4 3 2 3 2 0 1 1 2 3 3
1 1 1 1 2 1 2 2 1 2 2 2 3 1 1 3 3 4 5 7 8 9 9 9 9 9 9 9 9 8 7 7 6 5 5 5 4 3 2 1 0 1 1 2
1 1 2 2 1 1 2 2 2 2 2 2 3 2 2 2 2 2 4 6 7 8 8 8 8 9 9 9 9 8 7 7 7 6 6 6 5 4 4 3 2 1 1 1
1 1 1 2 2 2 2 3 3 2 2 3 3 2 2 1 2 3 4 6 6 6 7 8 8 9 9 9 9 9 9 8 8 7 7 7 6 7 6 5 4 2 1 1
1 2 3 3 2 2 4 4 4 4 3 4 5 6 4 4 4 4 4 4 4 5 6 7 7 8 8 8 9 8 8 8 8 8 7 7 7 7 6 5 5 4 3 2
1 2 3 7 7 7 8 8 8 8 7 6 5 6 7 6 5 4 3 3 3 4 5 6 7 7 7 8 8 8 8 8 8 8 8 8 7 7 6 6 6 5 5 4
1 2 3 4 3 5 8 9 9 9 8 9 9 9 5 3 3 3 3 3 3 4 5 5 6 6 7 7 7 7 7 7 7 7 7 7 7 7 7 7 7 6 6 6
1 2 3 3 5 6 5 5 7 5 6 6 7 5 2 3 5 5 4 4 3 3 4 5 5 5 6 6 6 6 6 6 6 6 7 7 7 7 7 7 7 7 7 6
2 1 2 4 5 3 1 1 3 5 5 7 7 7 5 5 5 5 4 4 4 3 3 4 4 5 5 5 5 5 5 5 6 6 7 7 7 7 7 7 7 7 6 5
4 2 2 2 4 6 2 1 2 3 4 4 7 7 5 2 3 4 5 5 5 4 4 3 4 4 4 4 4 4 4 4 5 6 6 7 7 7 7 7 7 7 6 5
2 3 3 2 3 3 1 1 1 2 3 1 4 5 4 3 3 3 3 4 4 3 3 3 3 3 3 4 4 3 3 4 5 5 6 6 6 6 6 6 6 6 5 5
3 3 5 5 5 6 2 1 3 2 3 2 3 5 6 6 5 1 3 4 4 3 3 2 2 2 3 3 3 3 3 4 5 5 5 5 6 6 5 5 5 5 5 5
5 5 5 5 5 5 2 4 4 3 3 3 4 5 6 6 4 2 4 4 4 3 3 3 3 3 3 3 3 3 3 4 4 5 5 5 5 5 5 5 5 6 5 5
6 6 3 6 5 1 4 5 4 3 5 4 5 5 5 5 5 5 5 5 5 4 4 3 3 3 3 3 3 4 4 4 4 4 5 5 5 5 5 5 5 5 5 4
4 4 5 7 9 7 8 8 8 7 7 7 6 5 5 6 5 5 5 5 5 5 4 3 3 4 4 4 4 4 4 4 4 4 4 4 4 5 5 4 4 4 4 4
5 6 5 8 9 8 6 5 6 7 6 6 5 5 6 6 6 6 6 6 5 5 4 4 4 5 5 4 4 4 4 3 4 4 4 4 4 4 4 4 4 5 4 5
8 9 8 7 5 4 5 4 5 5 6 6 6 5 5 6 7 6 6 6 5 5 5 5 5 5 5 4 5 4 4 4 4 4 4 4 4 4 4 4 5 5 6 7
Wind_Direction
147 171 181 186 202 232 247 265 276 281 295 293 284 291 302 314 322 325 327 329 327 325 325 326 320 314 304 293 267 251 247 242 234 224 215 214 216 215 217 214 210 206 206 204
160 185 194 192 207 220 241 261 275 292 298 295 293 296 301 316 330 341 342 341 336 332 331 330 326 324 316 303 285 266 253 247 238 226 215 215 217 217 218 213 213 210 211 209
173 135 172 210 222 236 250 249 272 298 313 288 292 291 300 357 3 1 359 350 342 337 333 330 330 330 324 316 304 284 269 253 244 229 213 210 215 217 219 212 215 213 214 212
197 199 201 221 232 239 265 256 270 288 300 296 313 292 290 339 347 355 353 351 348 342 338 334 333 329 325 320 314 300 277 261 247 233 217 209 215 220 222 217 217 214 216 215
178 194 207 224 240 236 269 291 277 277 268 275 259 258 281 342 341 344 346 349 348 345 342 338 335 332 328 325 319 309 287 267 254 242 229 213 218 224 222 214 215 218 218 219
235 225 247 251 260 229 270 279 261 229 230 252 243 242 280 340 334 332 338 344 345 346 346 345 343 344 343 340 331 316 283 267 255 244 239 217 217 221 217 213 212 219 221 219
177 190 204 228 245 203 269 290 270 227 229 261 174 252 274 343 336 327 331 339 345 349 351 353 353 353 352 350 346 338 333 314 282 255 244 220 227 228 220 217 215 219 222 223
191 192 184 217 246 264 277 290 321 304 303 312 259 260 303 3 337 337 341 346 350 356 358 0 359 358 358 357 355 3 17 27 24 6 323 268 258 238 221 214 211 220 224 226
231 229 106 255 255 226 218 214 329 271 283 273 267 281 280 331 339 344 347 353 355 356 358 1 2 4 1 358 358 7 26 31 24 20 6 342 318 277 229 219 216 229 234 228
287 266 260 283 193 167 265 218 209 244 289 294 287 275 300 306 316 331 340 347 351 354 357 359 2 6 9 9 10 19 29 37 28 21 16 15 5 333 224 191 227 244 243 230
249 267 288 229 220 208 181 198 228 242 272 282 297 309 18 290 298 313 330 340 344 349 353 359 4 7 11 15 16 20 26 26 21 24 24 25 15 6 45 53 9 288 276 234
240 278 279 252 279 284 251 242 229 269 259 248 271 281 47 315 296 312 325 334 342 348 353 2 8 10 11 14 14 15 20 27 25 28 30 24 17 27 45 47 26 344 312 269
205 245 288 177 180 193 236 228 222 240 248 236 250 261 58 356 315 323 331 337 344 350 358 2 6 8 9 10 10 13 20 24 24 29 33 29 27 31 33 30 24 26 15 360
236 248 256 275 311 268 256 235 211 213 236 253 247 271 291 302 307 320 329 334 341 348 358 2 2 3 6 7 8 13 15 17 21 25 28 26 24 26 26 24 22 21 17 12
263 265 263 272 276 267 264 258 236 230 241 249 265 271 279 281 273 277 294 315 336 344 350 354 354 353 357 3 5 9 11 13 17 21 22 20 16 16 19 20 18 16 18 16
310 276 288 282 269 272 266 259 244 240 244 250 267 276 278 264 245 256 271 285 305 319 329 340 344 346 349 354 356 2 5 6 14 20 17 15 16 17 16 14 14 15 14 16
259 280 298 287 311 295 266 247 214 216 221 222 239 259 246 252 249 247 246 251 258 282 304 319 331 337 340 344 348 352 353 359 12 15 11 12 13 15 12 10 12 11 8 12
227 253 284 301 313 263 30 68 210 227 241 229 253 266 255 259 270 253 236 234 248 263 285 303 315 325 331 336 340 342 348 358 6 9 8 7 8 9 8 9 9 5 2 2
222 231 262 283 294 284 289 191 193 229 270 237 249 266 269 279 287 255 225 227 236 245 261 281 299 310 318 328 333 336 347 356 3 2 359 358 359 1 2 3 359 355 353 352
172 215 239 248 274 266 356 93 188 226 262 286 249 253 235 206 261 271 200 216 233 242 247 265 291 307 314 324 327 331 340 349 351 346 345 348 351 353 355 351 346 344 343 341
183 197 219 233 253 272 299 179 178 230 327 331 268 249 217 225 259 296 189 212 221 226 237 248 270 284 299 311 310 312 323 332 332 332 335 342 345 346 345 343 340 340 341 342
202 196 206 205 228 257 142 151 206 285 329 290 276 256 237 247 265 246 214 212 209 214 225 237 250 268 284 289 289 292 304 318 323 326 332 338 339 341 338 339 340 341 343 344
221 219 223 217 237 312 185 224 263 284 279 281 276 266 243 245 249 237 229 221 216 218 223 234 246 260 273 276 278 281 300 314 316 322 327 330 333 337 337 335 336 337 339 339
232 217 238 260 262 260 256 257 263 264 268 277 272 261 238 245 245 237 229 225 225 226 227 232 242 251 261 265 270 280 293 299 300 309 315 319 323 329 333 331 328 330 331 331
236 192 225 254 273 286 258 250 273 276 270 271 268 256 245 246 244 237 235 231 228 227 229 230 237 248 258 264 269 280 286 287 291 298 306 312 317 320 323 323 321 319 319 322
213 208 217 245 249 249 277 294 297 281 273 268 265 263 252 239 242 242 242 236 230 228 227 233 244 253 260 263 266 273 282 280 285 294 303 307 310 313 316 320 322 321 320 329
Height
1501 1501 1499 1499 1501 1501 1501 1500 1497 1494 1495 1495 1488 1484 1481 1480 1478 1475 1473 1471 1469 1466 1464 1461 1458 1455 1453 1451 1450 1451 1452 1453 1456 1458 1459 1462 1464 1466 1469 1472 1475 1477 1480 1484
1500 1499 1501 1502 1502 1502 1501 1500 1495 1493 1494 1493 1487 1482 1478 1477 1476 1475 1472 1470 1467 1464 1461 1457 1454 1451 1449 1447 1446 1446 1447 1448 1450 1452 1454 1457 1459 1461 1464 1466 1469 1472 1475 1478
1496 1499 1501 1502 1500 1500 1498 1497 1494 1494 1492 1490 1487 1477 1475 1475 1475 1474 1473 1470 1467 1464 1459 1455 1451 1448 1446 1444 1443 1442 1443 1444 1445 1448 1450 1452 1454 1457 1459 1461 1464 1467 1470 1473
1498 1500 1500 1499 1498 1498 1494 1495 1495 1494 1493 1487 1488 1479 1472 1474 1474 1473 1472 1469 1466 1462 1458 1453 1449 1446 1443 1441 1440 1439 1440 1440 1441 1443 1445 1447 1450 1452 1454 1456 1459 1462 1465 1467
1497 1499 1499 1498 1497 1498 1495 1495 1494 1493 1492 1491 1485 1483 1471 1474 1473 1473 1471 1469 1466 1461 1456 1451 1447 1443 1441 1438 1437 1436 1436 1437 1437 1439 1441 1443 1446 1449 1450 1453 1455 1457 1460 1462
1498 1500 1500 1498 1498 1498 1497 1495 1493 1492 1491 1486 1483 1481 1470 1472 1475 1473 1471 1469 1465 1460 1455 1450 1445 1442 1439 1437 1435 1434 1434 1434 1435 1437 1438 1440 1442 1444 1446 1447 1449 1452 1455 1457
1497 1498 1499 1499 1497 1496 1496 1493 1486 1482 1480 1475 1483 1480 1473 1474 1476 1475 1472 1468 1464 1459 1454 1449 1445 1442 1439 1437 1434 1433 1432 1432 1433 1435 1436 1437 1439 1440 1441 1443 1445 1448 1450 1452
1496 1495 1497 1498 1497 1495 1495 1494 1489 1482 1475 1473 1479 1475 1471 1475 1476 1475 1473 1469 1465 1460 1455 1451 1446 1443 1440 1437 1435 1433 1431 1431 1432 1433 1433 1434 1435 1437 1437 1439 1441 1443 1445 1448
1495 1495 1498 1498 1498 1497 1494 1493 1494 1492 1490 1483 1472 1473 1472 1475 1475 1474 1472 1469 1465 1461 1457 1452 1448 1445 1442 1439 1436 1434 1432 1432 1432 1432 1432 1432 1432 1433 1434 1436 1438 1440 1441 1443
1500 1499 1496 1498 1498 1498 1496 1494 1494 1491 1485 1474 1468 1468 1469 1472 1474 1474 1472 1469 1466 1463 1458 1454 1449 1446 1442 1439 1437 1435 1433 1432 1432 1431 1431 1431 1431 1430 1431 1433 1434 1436 1437 1439
1501 1499 1496 1496 1494 1493 1495 1495 1493 1490 1488 1480 1471 1467 1470 1473 1473 1473 1472 1471 1468 1464 1460 1455 1451 1447 1444 1441 1438 1436 1434 1433 1432 1431 1430 1429 1429 1429 1429 1430 1432 1433 1434 1435
1501 1498 1495 1494 1495 1496 1494 1492 1492 1488 1487 1486 1478 1473 1473 1474 1474 1474 1473 1471 1469 1465 1461 1457 1453 1450 1446 1443 1440 1438 1435 1434 1432 1431 1430 1429 1429 1428 1427 1428 1429 1429 1430 1431
1500 1498 1492 1487 1494 1496 1493 1492 1492 1492 1490 1485 1478 1472 1474 1475 1475 1474 1473 1471 1469 1466 1463 1459 1456 1452 1449 1446 1443 1440 1437 1435 1434 1433 1431 1430 1428 1427 1426 1427 1427 1427 1427 1427
1500 1497 1494 1486 1483 1488 1489 1490 1491 1491 1486 1479 1476 1471 1471 1473 1474 1474 1473 1472 1469 1467 1464 1461 1458 1455 1452 1449 1445 1442 1440 1438 1436 1434 1432 1430 1428 1427 1427 1426 1425 1425 1425 1424
1499 1496 1494 1492 1490 1490 1487 1486 1487 1488 1483 1480 1473 1472 1470 1472 1473 1473 1473 1472 1470 1468 1465 1462 1460 1457 1454 1450 1447 1444 1442 1440 1437 1435 1433 1431 1429 1428 1426 1425 1424 1423 1423 1422
1499 1496 1494 1489 1488 1488 1486 1482 1482 1483 1482 1479 1476 1473 1470 1472 1473 1473 1472 1471 1470 1468 1466 1464 1461 1458 1455 1452 1449 1446 1443 1441 1439 1437 1435 1433 1431 1429 1426 1425 1424 1422 1421 1420
1499 1497 1492 1484 1485 1484 1475 1474 1476 1477 1476 1476 1473 1469 1470 1471 1471 1471 1471 1470 1469 1468 1466 1464 1462 1459 1456 1453 1450 1447 1445 1443 1440 1438 1436 1434 1432 1429 1428 1426 1424 1422 1420 1419
1499 1497 1494 1488 1483 1478 1471 1474 1474 1474 1473 1473 1471 1469 1469 1469 1470 1469 1469 1468 1468 1467 1466 1464 1462 1459 1457 1454 1451 1449 1446 1444 1442 1439 1437 1435 1432 1430 1428 1426 1424 1422 1420 1418
1500 1498 1494 1490 1482 1472 1470 1473 1474 1474 1469 1469 1469 1468 1468 1469 1468 1467 1466 1467 1467 1466 1465 1463 1461 1459 1456 1454 1452 1449 1447 1445 1443 1440 1438 1435 1433 1430 1428 1426 1423 1421 1419 1417
1501 1499 1496 1491 1486 1474 1467 1473 1474 1475 1467 1466 1467 1466 1467 1467 1465 1463 1464 1464 1464 1464 1463 1461 1460 1458 1456 1454 1452 1449 1447 1445 1442 1440 1438 1435 1433 1431 1428 1425 1423 1420 1418 1416
1496 1496 1494 1489 1484 1470 1470 1473 1474 1470 1464 1466 1465 1465 1465 1464 1463 1463 1462 1462 1462 1461 1461 1459 1458 1456 1455 1453 1451 1448 1446 1444 1442 1440 1438 1435 1433 1430 1428 1425 1422 1419 1417 1414
1487 1486 1487 1485 1482 1472 1471 1471 1470 1466 1465 1464 1463 1463 1462 1462 1461 1460 1459 1459 1459 1459 1458 1457 1456 1455 1453 1451 1449 1447 1445 1443 1441 1439 1436 1434 1432 1429 1426 1423 1421 1418 1415 1413
1485 1481 1477 1477 1471 1468 1468 1467 1466 1465 1464 1462 1461 1460 1460 1459 1458 1458 1457 1457 1457 1456 1456 1455 1454 1452 1451 1449 1447 1445 1444 1441 1439 1437 1435 1433 1430 1428 1425 1422 1419 1417 1414 1411
1482 1483 1481 1475 1466 1466 1465 1464 1463 1462 1461 1460 1459 1458 1457 1456 1456 1455 1455 1454 1454 1454 1453 1452 1451 1449 1448 1447 1445 1443 1441 1440 1438 1435 1433 1431 1428 1426 1423 1421 1418 1415 1412 1410
1475 1478 1475 1470 1464 1462 1460 1460 1459 1458 1457 1456 1455 1455 1454 1454 1453 1453 1452 1451 1451 1451 1450 1449 1448 1447 1445 1444 1442 1441 1439 1437 1435 1433 1431 1428 1426 1424 1421 1419 1417 1414 1411 1409
1469 1468 1466 1460 1459 1460 1458 1457 1456 1455 1453 1452 1451 1451 1451 1451 1450 1449 1448 1448 1448 1447 1447 1446 1445 1444 1442 1441 1439 1438 1436 1434 1433 1431 1429 1426 1424 1422 1419 1417 1414 1412 1410 1407